DECAYED

OBJECT AC, 57030 (Decayed)

Orbit data source: Space-Track

You're viewing an Uncataloged Satellite

Recently launched and/or uncataloged satellites may have evolving metadata. Metadata may include but not limited to: Owner, Maufacturer, Bus, Motor, and Mission.

OBJECT AC, 57030 was a Chinese satellite in LEO that was launched on Thu, 15 Jun 2023 UTC via a CHANG ZHENG 2D launch vehicle from the Taiyaun Space Center, China (TSC). Unknown objects in Earth's orbit typically refer to objects detected orbiting the Earth but have not yet been identified or cataloged. These objects could be anything from previously untracked satellites, spent rocket stages, debris from satellite collisions, or even natural meteoroids temporarily captured by Earth's gravity. This object's orbit decayed before it could be identified.

Not visible in the next 10 days
Identifier
57030, 2023-085AC
Orbit
Decayed
Country
Flag of CNCN / PRC
Related business
None
Manufacturer
Unknown
Mission
Decayed Commercial Imaging
Bus & Motor
Unknown
Mass
Unknown
Launch date (UTC)
2023-06-15 (3 years ago)
Launch vehicle
CHANG ZHENG 2D
Launch site
Taiyaun Space Center, China (TSC)
Object type
Unknown
Shape & HBR
Box, 0.8 m
Radar Cross Section
2.000 m², Medium (>0.1 m² and < 1m²)

Expand to show TLE details & history
Last TLE update: 7 months ago

TLE from 7 months ago
0 OBJECT AC
1 57030U 23085AC  25322.08271359  .16243652  26299-5  37154-3 0  9997
2 57030  97.4501  84.9085 0009923 261.5149  98.5028 16.45796649135646
Epoch: 2025-11-18T01:59Z
TLE epoch observation values (Epoch: 2025-11-18T01:59:06.454Z)
Latitude
-0.00008°
Longitude
-2.24228°
Altitude
154.65 km
Speed
7.813 km/s
True Right ascension
05h 39m 38s
True Declination
0° 00' 00"
Sunlit
Object was in full shadow at epoch
Visualization orbit readout
Latitude
Unknown
Longitude
Unknown
Altitude
Unknown
Speed
Unknown
Apparent Right ascension
Unknown
Apparent Declination
Unknown
Sunlit
N/A
Visualization observer readout
Local Sidereal Time
21:33:26
Azimuth
Unknown
Elevation
Unknown
Doppler factor
Unknown
Orbital elements
Apogee altitude
153.705 km
Perigee altitude
140.755 km
Semi-major axis
6,525.367 km
Eccentricity
0.00099
Inclination
97.4501°
RAAN
84.9085°
Arg. of periapsis
261.5149°
True anomaly
98.61524°
Mean anomaly
98.5028°
Eccentric anomaly
98.55902°
Mean motion
4.11752 °/min
Orbital period
87.43 mins
BSTAR
0.00037154
Loading maneuver chart data...
Computing Atmospheric mass density...
Loading historical data...
Loading historical data...
Loading historical data...
Loading historical data...
Loading historical data...
Loading historical data...
Loading historical data...

Documentation

Showing up to 5 results
|